sat.trackr.live / text

‹ back to catalog

STARLINK-5883

NORAD 55956 · 2023-037AU

PAYLOAD ACTIVE UNKNOWN

§ Identity

Operator
Country
US
Launch date
2023-03-17
Launch site
AFWTR
Launch vehicle
Mass (kg)
RCS (m²)

Purposes: comms

External: N2YO · Heavens-Above · Gunter

§ Orbital elements

Epoch: 2026-09-20T08:18:17.664192Z

Period
96.11 min
Inclination
69.9987°
Eccentricity
0.0002887
Mean motion
14.98333158 rev/d
Perigee alt
570.0 km
Apogee alt
574.1 km
Semi-major
6,950.2 km
B*
2.3014e-5
RAAN
133.5422°
Arg perigee
272.8534°
Mean anomaly
87.2294°
Rev number
19,363

§ Raw data

STARLINK-58831 55956U 23037AU  26263.34603778  .00000182  00000+0  23014-4 0  99962 55956  69.9987 133.5422 0002887 272.8534  87.2294 14.98333158193635

JSON: /api/v1/satellites/55956 · /tle

For live sub-satellite position, see the globe view (requires WebGL).

§ Visibility from observer

Set your observer location to see the next 7 days of passes ≥ 10°. The values pass through the URL so the page stays shareable.

No JS? Fill the form by hand. The geolocation button needs JavaScript.